SL-3 DEB

Satellite information

Favourite Embed

Satellite Type and Status

DEBRISIN ORBIT

Key statistics

Satellite SL-3 DEB at a glance.

Uptime

18032

Days in orbit

Revolutions

≈ 14.1

Per day

Orbit

LEO

Low Earth Orbit

Inclination

81.3

Latest

Satellite identification and parameters

Extended collection of information and parameters for SL-3 DEB.

Object identification

Identified? True

Debris? True

Object name: SL-3 DEB

International designator: 1975-124C

Object number (NORAD): 26848

Object ID (CCSDS): 26848

Country: COMMONWEALTH OF INDEPENDENT STATES (CIS)

Current information (Y/N): Y

RCS size: SMALL

Orbital parameters

Period: 102.127 minutes

Inclination: 81.2762 deg

SMA: 7237.464 km

Apoapsis: 868.129 km

Periapsis: 850.53 km

RAAN: 247.4546 deg

Eccentricy: 0.0012158

Argument of periapsis: 41.111 deg

Mean anomaly: 319.0975 deg

Mean motion: 14.10012958 rev/day

Mean motion (dot): 0.00000286 rev/day2

B* drag term: 0.00015468 1/REarth

Two-line elements (TLE)

Creation date: May 8, 2025, 3:01 a.m.

Reference frame: TEME

Reference center: EARTH

Epoch: May 7, 2025, 5:30 p.m. UTC

TLE line 0: 0 SL-3 DEB

TLE line 1: 1 26848U 75124C 25127.72944697 .00000286 00000-0 15468-3 0 9995

TLE line 2: 2 26848 81.2762 247.4546 0012158 41.1110 319.0975 14.10012958302069

Live tracking on map

Real-time ground track for satellite SL-3 DEB.

In-orbit conjunctions

A list of the most updated potential collisions computed for object SL-3 DEB.

Target Orbit TCA Probability of collision Miss distance Type
THORAD DELTA 1 DEB SSO 2024-11-07 19:38:23 0.0008436564 146.0 (m) DEBRIS
CZ-6A DEB SSO 2024-10-03 05:04:31 0.0001524965 118.0 (m) DEBRIS

Associated space launch

The Meteor-1 series was the first series of Soviet meteorological satellites.

SL-3 DEB was lifted into orbit during the mission ‘Vostok 8A92M | Meteor-1 23 (38L)’, on board a Vostok 8A92M space rocket.

The launch took place on Dec. 25, 1975, 7 p.m. from 41/1.

For more information about the launch, click the button.

Launch to space Vostok 8A92M | Meteor-1 23 (38L)
Vostok 8A92M | Meteor-1 23 (38L)

Agency: N/A

Status: Launch Successful

Launch date: Dec. 25, 1975, 7 p.m. UTC

Rocket: Vostok 8A92M

Launch pad: 41/1

Location: Plesetsk Cosmodrome, Russian Federation

...

Latest news about this satellite

There are no fresh news available about this satellite. Check back as we update our databases every day.


Newsletter sign-up

Weekly statistics, charts and insights to help you stay on top of the space industry.